Dewpoint
69 72 74 72 73 74 71 68 69 71 72 72 71 71 68 69 70 70 68 67 64 63 63 63 63 64 58 55 55 55 54 56 54 54 55 61 68 66 66 67 65 69 64
70 74 72 73 75 71 70 68 69 71 72 72 72 71 70 70 69 67 64 63 62 61 60 61 60 55 60 61 55 61 58 59 54 60 60 55 62 66 69 68 61 59 62
73 71 73 73 72 71 69 68 69 72 74 72 73 71 69 67 64 62 63 62 60 57 57 58 57 57 57 56 57 56 55 55 55 53 53 51 53 57 59 62 63 63 54
74 73 75 75 73 70 70 71 71 73 72 71 70 69 66 62 62 60 59 57 56 56 56 56 55 55 55 55 54 56 56 54 56 50 50 50 51 58 55 54 54 54 55
76 77 75 75 75 74 71 74 73 72 70 69 67 64 61 57 50 58 55 56 57 56 55 53 53 54 53 52 49 54 55 51 48 48 48 48 50 53 53 53 52 53 55
76 74 74 73 73 72 71 72 71 70 68 67 64 62 58 48 52 53 55 55 55 55 53 52 51 52 54 51 50 50 51 53 52 50 48 50 54 53 51 51 51 51 51
72 73 72 71 70 70 70 69 68 67 66 65 62 60 57 53 51 52 55 51 51 53 54 53 46 46 53 54 55 55 52 49 50 52 52 51 52 52 53 53 54 52 52
71 71 71 70 70 69 68 67 66 66 64 63 60 59 56 52 51 51 53 52 53 53 53 53 53 52 51 53 55 51 50 48 50 46 51 52 51 53 53 53 56 57 52
69 70 71 70 70 69 67 67 66 65 63 61 59 58 54 52 49 50 53 50 52 53 53 52 52 52 48 49 52 53 52 50 52 53 55 55 55 54 52 49 48 47 45
71 71 71 71 70 69 68 68 66 64 61 56 56 56 54 52 49 50 53 47 51 46 53 55 53 50 46 46 48 50 52 50 49 52 52 52 56 55 56 54 49 46 46
68 71 71 70 70 69 68 68 65 62 60 58 56 55 53 53 51 47 50 53 45 46 44 45 47 50 49 48 48 48 50 52 50 50 50 43 44 45 44 48 54 49 46
68 69 71 71 69 67 67 66 64 61 59 57 56 52 52 54 53 49 47 48 50 48 48 46 49 50 49 50 49 51 52 51 49 48 45 44 43 43 44 49 56 55 52
70 70 70 69 68 67 66 64 59 60 54 54 49 46 46 49 49 51 50 49 48 47 48 50 52 50 49 50 51 52 52 50 49 46 45 46 45 45 54 52 56 60 60
70 69 68 68 66 65 62 60 56 53 49 46 45 44 43 45 45 48 47 48 50 50 51 48 49 51 50 50 50 51 51 50 47 46 46 45 44 44 44 45 43 44 43
67 67 67 64 64 63 61 55 52 54 46 43 43 43 43 44 46 47 45 45 46 46 46 47 46 48 51 50 47 48 48 47 46 45 43 44 43 44 44 44 43 43 43
67 66 63 62 60 55 54 51 47 47 46 44 44 45 47 46 45 44 43 43 43 44 45 45 47 56 53 51 45 46 46 46 44 43 43 43 42 43 43 43 43 43 42
65 64 66 61 54 52 49 47 45 46 46 43 41 41 42 42 42 41 41 42 43 44 45 46 51 52 51 45 44 43 39 41 50 41 41 42 42 43 43 42 41 41 43
65 60 65 53 49 47 46 45 42 40 40 40 42 42 41 40 41 41 42 43 44 46 47 49 50 51 46 44 42 38 39 40 39 40 40 41 42 41 40 40 40 42 43
64 59 52 48 47 46 46 44 41 43 45 44 43 43 42 41 42 42 43 46 47 47 45 50 51 46 44 42 39 40 44 39 38 40 40 40 41 40 40 39 39 42 45
55 54 53 51 47 45 43 42 45 45 44 44 43 43 46 46 46 47 48 49 48 48 48 53 47 45 42 40 39 39 37 37 39 39 39 40 41 41 40 40 40 43 44
52 55 53 47 44 44 44 46 44 43 43 41 41 44 44 43 41 42 45 47 50 53 52 47 44 41 38 37 36 34 33 33 34 33 32 31 32 34 40 41 43 43 40
49 48 45 44 44 44 45 43 43 42 41 40 42 44 43 43 44 51 51 50 52 48 46 44 41 36 35 35 35 34 34 33 33 33 32 32 32 31 32 36 38 40 43
46 43 42 42 43 46 44 43 42 42 41 41 41 44 44 44 46 44 47 47 48 47 44 41 38 35 36 37 37 37 35 34 35 33 32 33 32 31 33 36 39 42 43
43 42 41 42 43 43 43 43 43 43 41 40 40 42 43 45 46 50 51 47 47 45 42 39 36 36 38 39 38 37 37 36 34 32 34 33 32 31 33 39 41 43 44
43 42 42 43 43 43 43 43 42 42 43 43 42 43 47 52 51 50 51 47 46 43 40 37 36 37 39 41 41 40 36 30 35 33 33 33 33 35 37 40 41 42 43
41 42 42 42 43 44 44 43 43 42 42 43 44 45 47 49 51 51 51 48 46 43 41 37 37 38 40 39 38 34 31 30 32 31 32 34 35 36 39 42 42 41 43
Lifted_Index
-7 -7 -8 -8 -8 -8 -6 -4 -4 -5 -5 -5 -4 -3 -2 -2 -1 -1 0 1 2 3 4 4 5 5 6 6 7 6 6 6 7 6 6 5 4 3 2 2 2 2 2
-7 -8 -8 -8 -8 -8 -6 -5 -5 -5 -5 -5 -4 -3 -2 -1 -0 1 2 3 4 5 5 5 6 6 7 7 7 7 7 7 7 7 7 6 5 4 3 3 3 3 3
-8 -8 -9 -9 -9 -8 -7 -6 -6 -6 -6 -5 -4 -3 -1 0 2 3 4 5 6 7 7 7 8 8 8 8 8 8 8 8 8 8 8 8 7 6 6 5 5 5 5
-9 -9 -10 -9 -9 -7 -6 -6 -6 -6 -5 -4 -3 -2 0 3 4 5 6 7 8 8 9 9 9 10 10 11 10 9 9 9 9 9 9 8 8 8 8 8 7 7 7
-10 -10 -9 -9 -8 -6 -5 -5 -5 -5 -4 -3 -1 0 3 6 8 8 8 8 8 9 9 10 11 11 12 12 12 11 11 11 10 10 10 9 9 9 9 9 9 9 8
-9 -9 -8 -7 -6 -5 -4 -3 -3 -2 -2 -1 -0 2 5 8 10 10 9 9 9 9 10 11 11 12 12 12 12 12 12 12 12 11 11 10 10 10 10 10 10 9 9
-7 -7 -6 -5 -4 -3 -2 -1 -1 -1 -1 -0 1 3 7 10 11 11 10 9 9 9 10 10 11 12 12 11 11 11 11 12 12 12 11 11 11 11 11 10 10 9 9
-5 -5 -4 -3 -3 -2 -1 -1 -0 -0 -0 0 2 5 8 11 12 12 10 9 9 9 9 10 10 11 12 11 10 10 10 11 11 11 11 11 11 11 11 11 10 9 9
-4 -4 -4 -3 -3 -2 -1 -1 -0 0 0 1 4 7 10 12 13 12 10 9 9 9 9 9 9 10 12 12 11 10 9 10 10 10 10 10 10 10 10 10 10 10 10
-4 -4 -4 -3 -2 -2 -1 -1 0 0 1 3 6 8 10 12 13 12 10 9 8 8 8 9 9 10 11 11 11 10 9 9 10 9 9 9 9 9 9 10 9 9 10
-4 -4 -4 -4 -3 -2 -1 -0 -0 1 2 5 7 9 9 11 12 12 11 10 9 9 8 8 9 9 10 10 10 10 9 9 9 8 8 8 9 9 9 9 8 9 9
-4 -4 -4 -4 -3 -2 -1 -0 0 2 4 7 8 8 9 9 11 12 12 11 10 9 8 8 8 9 9 9 8 8 8 8 7 7 7 7 8 8 7 7 7 7 7
-5 -5 -4 -4 -3 -2 -1 -0 1 4 6 7 8 8 8 8 9 10 11 10 10 9 8 8 8 8 7 7 6 6 6 6 6 6 6 6 6 6 6 6 5 5 5
-5 -5 -4 -4 -3 -2 -1 1 3 5 6 7 8 8 8 8 8 8 8 8 8 8 7 7 7 6 5 5 4 4 4 4 5 5 5 5 5 5 5 5 5 5 5
-5 -4 -4 -3 -2 -1 1 3 4 6 7 7 7 7 7 7 7 7 8 8 8 7 7 7 6 4 3 3 3 3 3 4 4 4 5 5 5 5 5 5 5 5 5
-4 -4 -3 -2 -1 1 2 4 5 7 8 8 8 7 7 7 7 7 8 8 7 7 6 5 3 2 1 2 2 2 3 4 4 5 5 5 5 5 5 5 5 5 5
-4 -3 -2 -1 1 2 4 5 6 7 8 9 8 8 8 8 8 8 8 7 6 5 4 3 1 0 0 1 2 3 4 4 5 5 5 5 5 5 5 5 5 5 4
-2 -2 -0 1 3 4 4 5 6 6 7 8 8 8 8 8 8 7 7 5 4 3 2 1 -0 -0 1 2 3 4 5 5 5 5 5 5 5 5 5 5 5 5 4
-1 0 1 3 4 5 5 6 6 6 6 6 6 6 6 6 6 6 5 4 2 1 0 -0 -0 1 2 3 4 5 5 6 6 6 5 5 5 5 5 5 5 5 4
1 2 3 4 5 5 5 5 5 5 5 5 5 5 4 5 5 4 4 3 1 0 -0 -0 1 2 3 5 6 6 6 7 7 7 7 7 6 6 6 5 5 5 5
3 3 4 5 5 5 5 5 5 5 5 5 4 4 4 4 4 3 2 2 1 0 0 1 2 4 5 6 6 7 7 8 8 8 9 9 9 8 7 6 6 5 5
4 4 5 5 5 5 5 5 4 4 4 4 4 4 4 3 3 2 2 1 1 1 1 3 4 5 6 6 7 7 8 8 9 10 10 11 10 10 9 7 6 6 6
4 5 5 5 5 5 5 4 4 4 4 3 3 3 3 3 2 2 1 1 1 1 2 4 5 6 6 6 7 7 8 9 10 11 11 12 11 10 9 8 7 6 6
5 5 5 5 5 5 4 4 4 4 4 3 3 2 2 2 1 1 1 1 1 2 4 5 6 6 6 6 7 7 8 9 11 12 12 12 12 10 8 7 7 7 6
5 5 5 5 4 4 4 4 4 3 3 3 2 2 1 1 1 1 1 1 2 3 4 5 6 6 6 7 7 8 9 11 12 13 13 13 12 10 8 8 7 7 7
5 5 5 5 4 4 4 4 3 3 3 2 2 2 1 1 1 0 0 1 2 3 4 5 6 6 6 7 7 9 10 11 12 13 14 14 13 10 8 8 7 7 6